Fort Bragg, NC

10:37 PM EST on December 14, 2017 (GMT -0500)
Simmons Army Air Field

Weather History for KFBG - March, 2012

Change the Weather History Date:

Saturday, March 24, 2012

  Actual Average Record
Temperature  
Mean Temperature 68 °F -  
Max Temperature 77 °F 65 °F 86 °F (2007)
Min Temperature 60 °F 43 °F 32 °F (2004)
Cooling Degree Days 3    
Growing Degree Days 18 (Base 50)    
Moisture  
Dew Point 65 °F    
Average Humidity 91    
Maximum Humidity 100    
Minimum Humidity 66    
Precipitation  
Precipitation 0.47 in - - ()
Sea Level Pressure  
Sea Level Pressure 29.87 in    
Wind  
Wind Speed 4 mph (SSE)    
Max Wind Speed 14 mph    
Max Gust Speed 18 mph    
Visibility 9 miles    
Events Rain , Thunderstorm    
Averages and records for this station are not official NWS values.
T = Trace of Precipitation, MM = Missing Value Source: NWS Daily Summary

Daily Weather History Graph

Daily Weather History Graph

Search for Another Location

Airport or City:

Trip Planner

Search our weather history database for the weather conditions in past years. The results will help you decide how hot, cold, wet, or windy it might be!

Date:

Astronomy

Mar. 24, 2012 Rise Set
Actual Time 7:13 AM EDT 7:31 PM EDT
Civil Twilight 6:47 AM EDT 7:56 PM EDT
Nautical Twilight 6:18 AM EDT 8:26 PM EDT
Astronomical Twilight 5:48 AM EDT 8:56 PM EDT
Moon 7:57 AM EDT (3/24) 9:41 PM EDT (3/24)
Length of Visible Light 13h 08m
Length of Day
12h 18m
Waxing Crescent, 4% of the Moon is Illuminated
Mar 24
Waxing Crescent
Mar 30
First Quarter
Apr 6
Full
Apr 13
Last Quarter
Apr 21
New

Hourly Weather History & Observations

Time (EDT) Temp. Dew Point Humidity Pressure Visibility Wind Dir Wind Speed Gust Speed Precip Events Conditions
12:55 AM 69.6 °F 62.6 °F 78% 29.99 in 10.0 mi South 4.6 mph - N/A   Partly Cloudy
1:55 AM 69.1 °F 62.8 °F 80% 29.97 in 10.0 mi Calm Calm - N/A   Scattered Clouds
2:55 AM 68.5 °F 63.0 °F 82% 29.96 in 10.0 mi South 4.6 mph - N/A   Partly Cloudy
3:55 AM 68.0 °F 62.4 °F 82% 29.94 in 10.0 mi SSW 5.8 mph - N/A   Scattered Clouds
4:55 AM 67.5 °F 62.6 °F 84% 29.92 in 10.0 mi South 4.6 mph - N/A   Partly Cloudy
5:21 AM 68.0 °F 62.6 °F 83% 29.92 in 10.0 mi Calm Calm - N/A Rain Light Rain
5:42 AM 66.2 °F 62.6 °F 88% 29.93 in 10.0 mi SSW 3.5 mph - N/A   Clear
5:55 AM 66.9 °F 62.6 °F 86% 29.93 in 10.0 mi South 3.5 mph - 0.00 in   Light Drizzle
6:55 AM 65.8 °F 64.0 °F 94% 29.94 in 10.0 mi Calm Calm - 0.00 in   Light Drizzle
7:24 AM 66.2 °F 64.4 °F 94% 29.94 in 10.0 mi Calm Calm - N/A   Partly Cloudy
7:28 AM 66.2 °F 64.4 °F 94% 29.94 in 10.0 mi Calm Calm - N/A Rain Light Rain
7:55 AM 65.3 °F 64.4 °F 97% 29.95 in 10.0 mi Calm Calm - 0.02 in Rain Light Rain
8:06 AM 64.4 °F 64.4 °F 100% 29.95 in 8.0 mi Calm Calm - N/A Rain Light Rain
8:24 AM 64.4 °F 64.4 °F 100% 29.95 in 8.0 mi Calm Calm - N/A Rain Light Rain
8:40 AM 64.4 °F 64.4 °F 100% 29.95 in 10.0 mi SE 3.5 mph - N/A Rain Light Rain
8:42 AM 64.4 °F 64.4 °F 100% 29.95 in 10.0 mi SE 3.5 mph - N/A Rain Light Rain
8:47 AM 64.4 °F 64.4 °F 100% 29.95 in 10.0 mi Calm Calm - N/A   Scattered Clouds
8:55 AM 65.1 °F 64.9 °F 99% 29.95 in 10.0 mi Calm Calm - 0.04 in   Partly Cloudy
8:56 AM 64.4 °F 64.4 °F 100% 29.95 in 10.0 mi SSE 3.5 mph - N/A Rain Light Rain
9:06 AM 66.2 °F 64.4 °F 94% 29.95 in 10.0 mi SSE 3.5 mph - N/A   Partly Cloudy
9:31 AM 66.2 °F 66.2 °F 100% 29.95 in 10.0 mi SSE 4.6 mph - N/A   Mostly Cloudy
9:55 AM 66.4 °F 66.2 °F 99% 29.94 in 10.0 mi South 6.9 mph - 0.00 in   Mostly Cloudy
9:57 AM 66.2 °F 66.2 °F 100% 29.94 in 10.0 mi South 5.8 mph - N/A   Mostly Cloudy
10:03 AM 66.2 °F 66.2 °F 100% 29.94 in 10.0 mi South 4.6 mph - N/A Rain Light Rain
10:12 AM 66.2 °F 66.2 °F 100% 29.94 in 9.0 mi South 4.6 mph - N/A Rain Light Rain
10:26 AM 66.2 °F 66.2 °F 100% 29.94 in 10.0 mi SSE 4.6 mph - N/A   Scattered Clouds
10:55 AM 67.8 °F 66.7 °F 96% 29.94 in 10.0 mi South 5.8 mph - 0.01 in   Scattered Clouds
10:57 AM 68.0 °F 66.2 °F 94% 29.94 in 10.0 mi Variable 4.6 mph - N/A   Mostly Cloudy
11:27 AM 68.0 °F 66.2 °F 94% 29.93 in 10.0 mi South 3.5 mph - N/A   Mostly Cloudy
11:39 AM 68.0 °F 66.2 °F 94% 29.93 in 10.0 mi SSW 3.5 mph - N/A   Mostly Cloudy
11:55 AM 69.4 °F 66.2 °F 89% 29.92 in 10.0 mi Calm Calm - N/A   Overcast
12:08 PM 69.8 °F 66.2 °F 88% 29.91 in 10.0 mi Variable 3.5 mph - N/A   Mostly Cloudy
12:18 PM 69.8 °F 66.2 °F 88% 29.91 in 10.0 mi SSW 4.6 mph - N/A   Mostly Cloudy
12:47 PM 69.8 °F 66.2 °F 88% 29.89 in 10.0 mi ESE 3.5 mph - N/A Rain Light Rain
12:55 PM 69.8 °F 66.0 °F 88% 29.89 in 10.0 mi Calm Calm - 0.00 in Rain Light Rain
12:58 PM 69.8 °F 66.2 °F 88% 29.89 in 8.0 mi SSE 4.6 mph - N/A Rain Light Rain
1:03 PM 69.8 °F 66.2 °F 88% 29.88 in 1.8 mi SSE 3.5 mph - N/A Rain Heavy Rain
1:10 PM 68.0 °F 68.0 °F 100% 29.88 in 3.0 mi SSE 4.6 mph - N/A Rain Light Rain
1:14 PM 68.0 °F 68.0 °F 100% 29.88 in 10.0 mi SSE 3.5 mph - N/A   Mostly Cloudy
1:19 PM 68.0 °F 68.0 °F 100% 29.88 in 10.0 mi Calm Calm - N/A Rain , Thunderstorm Light Rain
1:26 PM 69.8 °F 68.0 °F 94% 29.87 in 10.0 mi Calm Calm - N/A Rain , Thunderstorm Light Rain
1:29 PM 69.8 °F 68.0 °F 94% 29.87 in 10.0 mi Calm Calm - N/A Thunderstorm Scattered Clouds
1:34 PM 71.6 °F 68.0 °F 88% 29.87 in 10.0 mi Calm Calm - N/A   Mostly Cloudy
1:40 PM 69.8 °F 68.0 °F 94% 29.87 in 10.0 mi SSE 4.6 mph - N/A Rain Light Rain
1:44 PM 69.8 °F 66.2 °F 88% 29.87 in 10.0 mi Calm Calm - N/A Rain Light Rain
1:55 PM 70.7 °F 67.1 °F 88% 29.86 in 10.0 mi Calm Calm - 0.11 in Rain Light Rain
2:08 PM 73.4 °F 68.0 °F 83% 29.85 in 10.0 mi Variable 3.5 mph - N/A   Partly Cloudy
2:12 PM 73.4 °F 68.0 °F 83% 29.84 in 10.0 mi SSE 4.6 mph - N/A Rain Light Rain
2:23 PM 73.4 °F 68.0 °F 83% 29.84 in 10.0 mi SSE 4.6 mph - N/A   Clear
2:24 PM 73.4 °F 68.0 °F 83% 29.84 in 10.0 mi SSE 3.5 mph - N/A   Light Drizzle
2:25 PM 73.4 °F 68.0 °F 83% 29.84 in 10.0 mi South 3.5 mph - N/A   Clear
2:38 PM 73.4 °F 68.0 °F 83% 29.83 in 10.0 mi SSW 3.5 mph - N/A   Clear
2:55 PM 75.2 °F 66.4 °F 74% 29.82 in 10.0 mi Calm Calm - 0.00 in   Clear
3:30 PM 75.2 °F 64.4 °F 69% 29.81 in 10.0 mi WNW 4.6 mph - N/A Rain Light Rain
3:41 PM 75.2 °F 64.4 °F 69% 29.79 in 10.0 mi Calm Calm - N/A   Partly Cloudy
3:55 PM 76.8 °F 64.6 °F 66% 29.79 in 10.0 mi Calm Calm - 0.00 in   Partly Cloudy
4:55 PM 76.6 °F 66.4 °F 70% 29.78 in 10.0 mi NE 6.9 mph - N/A   Partly Cloudy
5:20 PM 73.4 °F 64.4 °F 73% 29.77 in 10.0 mi East 10.4 mph - N/A Rain Light Rain
5:45 PM 69.8 °F 64.4 °F 83% 29.79 in 8.0 mi SE 9.2 mph - N/A Rain , Thunderstorm Light Thunderstorms and Rain
5:55 PM 68.7 °F 64.2 °F 86% 29.78 in 6.0 mi East 8.1 mph - 0.04 in Rain , Thunderstorm Light Thunderstorms and Rain
6:00 PM 66.2 °F 64.4 °F 94% 29.78 in 10.0 mi ESE 5.8 mph - N/A Rain Light Rain
6:06 PM 66.2 °F 64.4 °F 94% 29.78 in 9.0 mi SE 8.1 mph - N/A Rain , Thunderstorm Light Thunderstorms and Rain
6:12 PM 66.2 °F 64.4 °F 94% 29.79 in 3.0 mi East 11.5 mph 18.4 mph N/A Rain , Thunderstorm Light Thunderstorms and Rain
6:14 PM 66.2 °F 64.4 °F 94% 29.78 in 1.8 mi East 11.5 mph 18.4 mph N/A Rain , Thunderstorm Heavy Thunderstorms and Rain
6:15 PM 66.2 °F 64.4 °F 94% 29.78 in 1.5 mi East 11.5 mph 18.4 mph N/A Rain , Thunderstorm Heavy Thunderstorms and Rain
6:21 PM 66.2 °F 64.4 °F 94% 29.78 in 2.0 mi ESE 12.7 mph - N/A Rain , Thunderstorm Light Thunderstorms and Rain
6:22 PM 66.2 °F 64.4 °F 94% 29.78 in 2.5 mi East 12.7 mph - N/A Rain , Thunderstorm Light Thunderstorms and Rain
6:26 PM 66.2 °F 64.4 °F 94% 29.78 in 10.0 mi ESE 10.4 mph - N/A Rain Light Rain
6:30 PM 66.2 °F 64.4 °F 94% 29.76 in 10.0 mi ESE 13.8 mph - N/A Rain Light Rain
6:46 PM 66.2 °F 64.4 °F 94% 29.77 in 10.0 mi SE 6.9 mph - N/A   Partly Cloudy
6:55 PM 66.0 °F 64.0 °F 93% 29.78 in 10.0 mi Variable 5.8 mph - 0.18 in   Partly Cloudy
7:55 PM 62.8 °F 59.2 °F 88% 29.81 in 10.0 mi SSE 3.5 mph - N/A   Clear
8:55 PM 60.8 °F 60.1 °F 97% 29.81 in 10.0 mi Calm Calm - N/A   Partly Cloudy
9:37 PM 60.8 °F 60.8 °F 100% 29.83 in 9.0 mi Calm Calm - N/A Rain Light Rain
9:55 PM 61.5 °F 61.0 °F 98% 29.82 in 5.0 mi Calm Calm - 0.04 in Rain Light Rain
10:02 PM 60.8 °F 60.8 °F 100% 29.81 in 10.0 mi ENE 3.5 mph - N/A   Mostly Cloudy
10:55 PM 60.6 °F 60.4 °F 99% 29.79 in 10.0 mi East 5.8 mph - 0.00 in   Partly Cloudy
11:26 PM 60.8 °F 60.8 °F 100% 29.81 in 10.0 mi SE 5.8 mph - N/A Rain , Thunderstorm Light Thunderstorms and Rain
11:32 PM 60.8 °F 60.8 °F 100% 29.81 in 10.0 mi SE 4.6 mph - N/A Rain , Thunderstorm Light Thunderstorms and Rain
11:38 PM 60.8 °F 60.8 °F 100% 29.80 in 10.0 mi SE 8.1 mph - N/A Rain , Thunderstorm Light Thunderstorms and Rain
11:41 PM 60.8 °F 60.8 °F 100% 29.80 in 9.0 mi SE 8.1 mph - N/A Rain Light Rain
11:55 PM 61.5 °F 61.2 °F 99% 29.79 in 10.0 mi South 3.5 mph - 0.03 in Rain Light Rain